Location: Bullenkuhlen
(53.7689°N, 9.7495°E)
Time: 17:19:37
(UTC+00:00)

Cosmos 1703 - Pass Details

Date: 09 April 2020
Orbit: 524 x 540 km, 82.5° (Epoch: 28 May)

Event Time Altitude Azimuth Distance (km) Brightness Sun altitude
Rises 18:58:26 0° 345° (NNW) 2,708 7.5 -7.3°
Reaches altitude 10° 19:00:37 10° 342° (NNW) 1,813 6.6 -7.6°
Maximum altitude 19:04:32 58° 264° (W) 637 4.0 -8.1°
Drops below altitude 10° 19:08:26 10° 185° (S) 1,802 5.7 -8.6°
Sets 19:10:36 0° 181° (S) 2,690 6.6 -8.9°
